Location: Newark
(35.7833°N, 139.8000°E)
Time: 18:54:17
(UTC+00:00)

LightSail 2 - Visible Passes

Search period start: 14 October 2019 00:00
Search period end: 24 October 2019 00:00
Orbit: 707 x 723 km, 24.0° (Epoch: 13 October)

Date Brightness Start Highest point End Pass type
(mag) Time Alt. Az. Time Alt. Az. Time Alt. Az.
14 Oct 6.7 09:51:59 10° SW 09:55:55 22° S 09:56:28 21° S visible
15 Oct 6.9 08:54:43 10° SW 08:58:32 21° S 09:02:22 10° SE visible
15 Oct 7.4 10:39:42 10° SW 10:41:27 16° SW 10:41:27 16° SW visible
16 Oct 6.8 09:42:12 10° SW 09:46:05 21° S 09:47:27 19° SSE visible
17 Oct 6.9 08:44:47 10° SW 08:48:42 22° S 08:52:38 10° SE visible
17 Oct 7.4 10:30:19 10° SW 10:32:27 16° SSW 10:32:27 16° SSW visible
18 Oct 7.1 09:32:37 10° SW 09:36:13 19° S 09:38:28 15° SSE visible
19 Oct 7.1 08:35:02 10° SW 08:38:49 21° S 08:42:38 10° SE visible
19 Oct 7.5 10:21:26 10° SW 10:23:32 13° SSW 10:23:32 13° SSW visible
20 Oct 7.4 09:23:20 10° SW 09:26:18 15° SSW 09:29:17 10° SSE visible
21 Oct 7.4 08:25:30 10° SW 08:28:53 18° S 08:32:18 10° SSE visible
22 Oct 7.7 09:14:56 10° SSW 09:16:18 11° SSW 09:17:40 10° S visible
23 Oct 7.6 08:16:23 10° SW 08:18:54 14° SSW 08:21:26 10° SSE visible
